Regional Weather Roundup
Issued by NWS

Home | Current Version | Previous Version | Text Only | Print | Product List | Glossary On
Versions: 1 2 3 4 5 6 7 8 9 10 11 12 13 14 15 16 17 18 19 20 21 22 23 24 25 26 27 28 29 30 31 32 33 34 35 36 37 38 39 40 41 42 43 44 45 46 47 48 49 50
000
ASUS46 KPQR 211210
RWROR

OREGON REGIONAL WEATHER ROUNDUP
NATIONAL WEATHER SERVICE PORTLAND OR
500 AM PDT THU AUG 21 2014

NOTE: "FAIR" INDICATES FEW OR NO CLOUDS BELOW 12,000 FEET WITH
NO SIGNIFICANT WEATHER AND/OR OBSTRUCTIONS TO VISIBILITY.

ORZ001>013-211300-
NORTHWEST OREGON


CITY           SKY/WX    TMP DP  RH WIND       PRES   REMARKS
ASTORIA        CLOUDY    53  51  93 SE6       30.03F
6HR MIN TEMP:  52; 6HR MAX TEMP:  57;

NEWPORT        CLEAR     46  46 100 E3        30.07S
PORTLAND       PTCLDY    57  51  80 W5        30.04F
6HR MIN TEMP:  57; 6HR MAX TEMP:  63;

VANCOUVER WA   PTCLDY    56  49  77 CALM      30.04S
6HR MIN TEMP:  55; 6HR MAX TEMP:  63;

SCAPPOOSE      PTCLDY    50  48  93 CALM      30.04S
6HR MIN TEMP:  49; 6HR MAX TEMP:  60;

HILLSBORO      PTCLDY    47  46  97 CALM      30.04S
6HR MIN TEMP:  46; 6HR MAX TEMP:  59;

AURORA         CLEAR     52  48  86 CALM      30.05F
6HR MIN TEMP:  52; 6HR MAX TEMP:  61;

MCMINNVILLE    CLEAR     50  48  93 CALM      30.05S
6HR MIN TEMP:  49; 6HR MAX TEMP:  59;

SALEM          CLEAR     52  47  83 CALM      30.03F
6HR MIN TEMP:  51; 6HR MAX TEMP:  63;

CORVALLIS      CLEAR     52  48  87 NW5       30.05S
EUGENE         CLEAR     50  46  86 CALM      30.05S
6HR MIN TEMP:  49; 6HR MAX TEMP:  62;

$$

ORZ021-028-211300-
SOUTHWEST OREGON


CITY           SKY/WX    TMP DP  RH WIND       PRES   REMARKS
NORTH BEND     NOT AVBL
ROSEBURG       CLEAR     56  49  77 CALM      30.03S
6HR MIN TEMP:  56; 6HR MAX TEMP:  72;

SEXTON SUMMIT  CLEAR     54  41  61 N6        30.07S
6HR MIN TEMP:  52; 6HR MAX TEMP:  55;

MEDFORD        CLEAR     59  52  77 CALM      30.01S
6HR MIN TEMP:  58; 6HR MAX TEMP:  71;

$$

ORZ009-041-211300-
COLUMBIA GORGE


CITY           SKY/WX    TMP DP  RH WIND       PRES   REMARKS
TROUTDALE      PTCLDY    54  49  83 CALM      30.03F
6HR MIN TEMP:  54; 6HR MAX TEMP:  64;

THE DALLES     CLEAR     64  47  53 VRB5      29.94R
6HR MIN TEMP:  63; 6HR MAX TEMP:  71;

$$

ORZ029>031-042>050-061>064-211300-
EASTERN OREGON


CITY           SKY/WX    TMP DP  RH WIND       PRES   REMARKS
REDMOND        CLEAR     44  40  85 SE7       30.03S
6HR MIN TEMP:  42; 6HR MAX TEMP:  55;

BEND           SUNNY     45  41  87 S5        30.05F
KLAMATH FALLS  CLEAR     45  43  93 CALM      30.07R
6HR MIN TEMP:  45; 6HR MAX TEMP:  61;

LAKEVIEW       CLEAR     46  37  71 NW3       30.10R
HERMISTON      CLEAR     63  46  54 SW10      29.92R
6HR MIN TEMP:  63; 6HR MAX TEMP:  68;

PENDLETON      CLEAR     57  40  52 S5        29.95R
6HR MIN TEMP:  52; 6HR MAX TEMP:  67;

JOHN DAY       SUNNY     52  35  52 SW3       30.04R
MEACHAM        CLEAR     36  34  92 CALM      30.02R
6HR MIN TEMP:  36; 6HR MAX TEMP:  46;

LA GRANDE      CLEAR     41  27  56 CALM      29.97S
6HR MIN TEMP:  41; 6HR MAX TEMP:  61;

BAKER CITY     CLEAR     38  34  85 CALM      29.99R
6HR MIN TEMP:  37; 6HR MAX TEMP:  59;

BURNS          CLEAR     43  31  62 W9        30.04R
6HR MIN TEMP:  39; 6HR MAX TEMP:  58;

ROME             N/A     59  42  53 NE8       29.99R
6HR MIN TEMP:  58; 6HR MAX TEMP:  72;

ONTARIO        CLEAR     66  34  30 W7        29.92R
6HR MIN TEMP:  63; 6HR MAX TEMP:  74;

$$


USA.gov is the U.S. government's official web portal to all federal, state and local government web resources and services.